Weather History for Klamath Falls, OR

Change the Weather History Date:

Sunday, April 6, 2014

  Actual Average Record
Temperature  
Mean Temperature 8 °C 5 °C  
Max Temperature 16 °C 12 °C 25 °C (1996)
Min Temperature 1 °C -2 °C -7 °C (1968)
Degree Days  
Heating Degree Days 18 24  
Month to date heating degree days 152 148  
Since 1 July heating degree days 5649 5810  
Cooling Degree Days 0 0  
Month to date cooling degree days 0 0  
Year to date cooling degree days 0 0  
Moisture  
Dew Point 3 °C    
Average Humidity 74    
Maximum Humidity 96    
Minimum Humidity 37    
Precipitation  
Precipitation T mm 0.76 mm 1.17 mm (1963)
Month to date precipitation 0.08 0.20  
Year to date precipitation 4.67 5.24  
Sea Level Pressure  
Sea Level Pressure 1025 hPa    
Wind  
Wind Speed 9 km/h (WSW)    
Max Wind Speed 24 km/h    
Max Gust Speed 32 km/h    
Visibility 16 kilometers    
Events Rain    
T = Trace of Precipitation, MM = Missing Value Source: NWS Daily Summary

Daily Weather History Graph

Daily Weather History Graph

Search for Another Location

Airport:

Trip Planner

Search our weather history database for the weather conditions in past years. The results will help you decide how hot, cold, wet, or windy it might be!

Date:

Astronomy

Apr. 06, 2014 Rise Set
Actual Time 6:40 AM PDT 7:38 PM PDT
Civil Twilight 6:12 AM PDT 8:06 PM PDT
Nautical Twilight 5:38 AM PDT 8:40 PM PDT
Astronomical Twilight 5:03 AM PDT 9:16 PM PDT
Moon 11:43 AM PDT (4/6) 1:41 AM PDT (4/6)
Length of Visible Light 13h 54m
Length of Day
12h 57m
Waxing Crescent, 45% of the Moon is Illuminated
Apr 6
Waxing Crescent
Apr 7
First Quarter
Apr 15
Full
Apr 22
Last Quarter
Apr 28
New

Hourly Weather History & Observations

Time (PDT) Temp. Windchill Dew Point Humidity Pressure Visibility Wind Dir Wind Speed Gust Speed Precip Events Conditions
12:53 AM 6.1 °C 5.2 °C 2.2 °C 76% 1022.6 hPa 16.1 km Variable 5.6 km/h / 1.5 m/s - N/A   Overcast
1:53 AM 6.1 °C 4.2 °C 2.8 °C 80% 1022.8 hPa 16.1 km WSW 9.3 km/h / 2.6 m/s - N/A   Overcast
2:53 AM 5.6 °C 2.0 °C 3.9 °C 89% 1022.8 hPa 16.1 km WSW 18.5 km/h / 5.1 m/s - N/A   Overcast
3:02 AM 5.6 °C 2.3 °C 3.9 °C 89% 1023.6 hPa 16.1 km West 16.7 km/h / 4.6 m/s - N/A   Mostly Cloudy
3:53 AM 5.6 °C 3.6 °C 3.9 °C 89% 1022.8 hPa 16.1 km West 9.3 km/h / 2.6 m/s - 0.0 mm Rain Light Rain
4:53 AM 5.6 °C 4.6 °C 4.4 °C 92% 1023.0 hPa 14.5 km WSW 5.6 km/h / 1.5 m/s - 0.0 mm Rain Light Rain
5:04 AM 5.6 °C 4.0 °C 4.4 °C 92% 1024.3 hPa 16.1 km West 7.4 km/h / 2.1 m/s - 0.0 mm Rain Light Rain
5:12 AM 5.6 °C 4.6 °C 4.4 °C 92% 1024.3 hPa 16.1 km SW 5.6 km/h / 1.5 m/s - 0.0 mm Rain Light Rain
5:25 AM 5.6 °C 4.6 °C 4.4 °C 92% 1024.3 hPa 16.1 km SSW 5.6 km/h / 1.5 m/s - 0.0 mm   Overcast
5:53 AM 5.6 °C - 4.4 °C 92% 1023.7 hPa 16.1 km Calm Calm - 0.0 mm   Overcast
6:02 AM 5.6 °C - 4.4 °C 92% 1024.3 hPa 16.1 km Calm Calm - N/A   Overcast
6:14 AM 5.6 °C - 4.4 °C 92% 1024.3 hPa 16.1 km Calm Calm - N/A   Overcast
6:41 AM 5.6 °C 3.6 °C 4.4 °C 92% 1024.6 hPa 16.1 km SW 9.3 km/h / 2.6 m/s - N/A   Overcast
6:48 AM 6.0 °C 4.0 °C 4.0 °C 87% 1024.6 hPa 16.1 km SW 9.3 km/h / 2.6 m/s - N/A   Overcast
6:53 AM 6.1 °C 4.6 °C 4.4 °C 89% 1024.2 hPa 16.1 km SSW 7.4 km/h / 2.1 m/s - N/A   Overcast
7:18 AM 5.6 °C 4.0 °C 3.9 °C 89% 1024.6 hPa 16.1 km SW 7.4 km/h / 2.1 m/s - N/A   Mostly Cloudy
7:53 AM 6.1 °C 5.2 °C 5.0 °C 93% 1024.7 hPa 16.1 km South 5.6 km/h / 1.5 m/s - N/A   Overcast
8:53 AM 8.3 °C - 5.6 °C 83% 1025.0 hPa 16.1 km West 13.0 km/h / 3.6 m/s - N/A   Mostly Cloudy
9:53 AM 9.4 °C - 5.0 °C 74% 1025.7 hPa 16.1 km West 9.3 km/h / 2.6 m/s - N/A   Scattered Clouds
10:05 AM 9.4 °C - 5.0 °C 74% 1026.3 hPa 16.1 km Calm Calm - N/A   Mostly Cloudy
10:53 AM 10.0 °C - 4.4 °C 68% 1026.0 hPa 16.1 km East 7.4 km/h / 2.1 m/s - N/A   Overcast
11:19 AM 11.1 °C - 5.0 °C 66% 1027.0 hPa 16.1 km Calm Calm - N/A   Mostly Cloudy
11:53 AM 12.2 °C - 3.9 °C 57% 1025.9 hPa 16.1 km NW 7.4 km/h / 2.1 m/s - N/A   Overcast
12:53 PM 12.8 °C - 3.3 °C 53% 1025.5 hPa 16.1 km SSW 7.4 km/h / 2.1 m/s - N/A   Mostly Cloudy
1:53 PM 14.4 °C - 2.2 °C 44% 1024.9 hPa 16.1 km North - - N/A   Partly Cloudy
2:53 PM 15.0 °C - 2.8 °C 44% 1024.5 hPa 16.1 km Variable 9.3 km/h / 2.6 m/s - N/A   Clear
3:53 PM 15.6 °C - 2.8 °C 42% 1024.1 hPa 16.1 km NW 16.7 km/h / 4.6 m/s - N/A   Clear
4:53 PM 15.6 °C - 1.7 °C 39% 1023.7 hPa 16.1 km NNW 18.5 km/h / 5.1 m/s - N/A   Clear
5:53 PM 15.0 °C - 1.1 °C 39% 1023.6 hPa 16.1 km NNW 16.7 km/h / 4.6 m/s - N/A   Clear
6:53 PM 13.9 °C - 1.1 °C 42% 1023.6 hPa 16.1 km NNW 22.2 km/h / 6.2 m/s - N/A   Clear
7:53 PM 11.1 °C - 1.7 °C 53% 1024.1 hPa 16.1 km NW 18.5 km/h / 5.1 m/s - N/A   Clear
8:53 PM 7.8 °C - 1.1 °C 63% 1024.9 hPa 16.1 km Calm Calm - N/A   Clear
9:53 PM 6.7 °C - 1.1 °C 68% 1025.7 hPa 16.1 km Calm Calm - N/A   Clear
10:53 PM 3.3 °C - 0.0 °C 79% 1026.3 hPa 16.1 km Calm Calm - N/A   Clear
11:53 PM 1.7 °C 0.1 °C -0.6 °C 85% 1026.3 hPa 16.1 km South 5.6 km/h / 1.5 m/s - N/A   Clear